Temperature
16 16 16 16 16 16 16 16 16 15 16 16 15 15 15 15 15 15 15 15 15 15 15 15 15 15 15 14 14 14 14 14 14 14 14 15 15 15 15 14 14 14 14
16 16 16 16 16 16 16 16 15 15 15 15 15 15 15 15 15 15 15 15 15 15 15 14 14 14 14 14 14 14 14 14 14 14 14 14 14 14 14 14 14 14 14
16 16 16 16 16 15 15 15 15 15 15 15 15 15 15 15 15 15 15 15 14 14 14 14 14 14 14 14 14 14 13 13 14 14 14 14 14 14 14 14 14 14 14
16 16 16 16 16 15 15 15 15 15 15 15 15 15 14 14 14 14 14 14 14 14 14 14 14 14 13 13 13 13 13 13 13 13 13 13 13 13 13 13 13 13 13
16 16 16 16 15 15 15 15 15 15 15 15 15 14 14 14 14 14 14 14 14 14 14 14 13 13 13 13 13 13 13 13 13 13 13 13 13 13 13 13 13 13 13
16 16 16 16 15 15 15 15 15 15 15 15 14 14 14 14 13 13 13 13 13 13 13 13 13 13 13 13 13 13 12 12 12 12 13 13 13 13 13 13 13 13 13
16 16 16 16 15 15 15 15 15 14 14 14 14 14 13 13 13 13 13 13 13 13 13 13 13 13 13 13 12 12 12 12 12 12 12 12 12 12 12 12 12 12 12
16 16 16 16 15 15 15 15 15 14 14 14 14 14 13 13 13 13 13 13 13 13 13 13 13 12 12 12 12 12 12 12 12 12 12 12 12 12 12 12 12 12 12
16 16 16 15 15 15 15 15 15 15 14 14 14 14 13 13 12 12 12 12 12 12 12 12 12 12 12 12 12 12 12 12 12 12 12 12 12 12 12 12 12 12 12
16 15 15 15 15 15 15 15 14 14 14 14 14 14 13 13 13 12 12 12 12 12 12 12 12 12 12 12 12 12 12 12 12 11 12 12 11 11 11 11 11 11 11
15 15 15 15 15 15 15 15 14 14 14 14 14 14 13 13 13 13 12 12 12 12 12 12 12 12 12 12 12 12 12 12 12 11 11 11 11 11 11 11 11 11 11
15 15 15 15 15 15 15 14 14 14 14 14 14 14 13 13 13 13 13 12 12 12 12 11 11 11 11 12 12 12 12 12 12 11 11 11 11 11 11 11 11 11 11
15 15 15 15 15 15 14 14 14 14 14 14 14 14 13 13 13 13 13 12 12 12 11 11 11 11 11 11 11 11 11 11 11 11 11 11 11 11 11 11 11 11 11
15 15 15 15 14 14 14 14 14 14 14 14 14 14 13 13 13 13 13 13 12 11 11 11 11 11 11 11 11 11 11 11 11 11 11 11 11 11 11 11 11 11 11
15 15 15 14 14 14 14 14 14 14 14 14 13 13 13 13 13 13 13 13 12 11 11 11 11 11 11 11 11 11 11 11 11 11 11 11 11 11 11 11 11 11 10
15 15 14 14 14 14 14 14 14 14 13 13 13 13 13 13 13 13 13 12 12 12 12 11 11 11 11 11 11 11 11 11 11 11 11 11 10 10 10 10 10 10 10
15 14 14 14 14 14 14 14 14 13 13 13 13 13 13 13 13 13 12 12 12 12 12 12 11 11 11 11 11 11 10 10 10 10 10 10 10 10 10 10 10 10 10
14 14 14 14 14 14 14 14 13 13 13 13 13 13 13 13 13 13 12 12 12 12 11 11 11 11 11 10 10 10 10 10 10 10 10 10 10 10 10 10 10 10 10
14 14 14 14 13 13 13 13 13 13 13 13 13 13 13 12 12 12 12 12 12 11 11 11 11 11 10 10 10 10 10 10 10 10 10 10 10 10 10 10 10 10 10
13 13 13 13 13 13 13 13 13 13 13 13 13 12 12 12 12 12 12 12 11 11 11 11 10 10 10 10 10 10 10 10 9 9 9 9 9 9 9 9 9 9 9
13 13 13 13 13 12 12 12 13 12 12 12 12 12 12 12 12 12 12 11 11 11 11 10 10 10 10 10 9 9 9 9 9 9 9 9 9 9 9 9 9 9 9
13 12 12 12 12 12 12 12 12 12 12 12 12 12 12 12 12 11 11 11 11 11 11 10 10 10 10 10 9 9 9 9 9 9 9 9 9 9 9 9 9 9 9
12 12 12 12 12 12 12 12 12 12 12 12 11 11 11 11 11 11 11 11 11 10 10 10 10 10 10 9 9 9 9 9 9 9 9 9 9 9 9 9 9 8 8
12 12 11 11 11 11 11 11 11 11 11 11 11 11 11 11 11 11 11 11 10 10 10 10 10 10 10 9 9 9 9 8 8 8 8 8 8 8 8 8 8 8 8
11 11 11 11 11 11 11 11 11 11 11 11 11 11 10 11 11 10 10 10 10 10 10 10 10 9 9 9 9 9 8 8 8 8 8 8 8 8 8 8 8 8 8
11 10 10 10 10 11 10 10 10 10 10 10 10 10 10 10 10 10 10 10 10 10 10 10 9 9 9 9 9 8 8 8 8 8 8 8 8 7 7 8 8 8 7
Wind_Speed
3 2 2 2 2 3 3 3 4 5 5 6 7 7 6 7 7 7 7 10 10 11 11 11 10 10 10 10 10 10 10 9 9 8 8 8 7 7 6 6 6 6 6
4 3 2 2 2 3 4 4 4 4 4 4 5 5 6 6 6 7 7 8 10 11 10 10 10 10 10 10 10 10 10 9 9 9 8 7 7 7 7 6 6 6 6
6 4 3 3 2 4 5 5 5 5 4 5 5 4 5 5 5 6 7 8 8 10 11 10 9 10 11 11 11 10 10 10 10 9 8 8 7 7 7 6 5 6 6
7 5 3 3 3 5 4 4 4 4 4 4 4 3 4 4 4 5 6 7 7 8 9 11 11 10 11 10 10 10 10 10 10 10 9 8 8 7 6 6 6 5 5
7 6 4 3 5 4 3 4 3 3 4 4 3 4 4 3 3 5 5 5 6 7 7 8 10 10 10 10 10 10 9 9 9 10 9 8 7 7 6 6 5 5 5
7 6 4 4 4 4 3 3 4 3 3 3 4 5 4 3 3 4 4 4 5 6 7 7 7 8 10 10 9 9 8 8 8 8 9 9 8 7 6 5 5 5 5
7 6 4 3 4 4 3 4 4 4 3 3 4 4 4 5 4 3 3 3 4 4 6 6 6 6 6 7 8 8 8 8 8 8 8 8 8 8 7 6 5 5 6
6 6 5 4 3 3 3 3 4 3 1 2 3 3 2 4 4 4 3 3 3 3 4 4 5 5 5 5 6 7 7 7 7 7 7 7 8 7 7 6 5 5 5
5 5 5 4 4 4 3 3 4 4 2 0 1 3 3 1 1 3 3 3 2 2 2 3 4 4 4 4 4 5 6 6 6 6 6 6 6 6 6 6 5 5 5
4 4 5 4 3 3 3 3 3 3 4 2 0 1 2 4 2 0 2 3 2 2 2 1 2 3 3 3 3 4 4 4 4 4 5 5 5 5 5 5 5 5 5
3 4 4 4 4 3 3 3 3 3 3 3 2 1 2 2 2 3 1 2 2 2 2 1 1 2 3 3 2 3 3 3 3 4 4 5 4 4 4 4 5 5 4
1 2 4 3 3 3 3 3 3 4 3 3 2 2 3 2 2 2 2 1 1 2 2 1 0 0 1 1 1 2 3 3 3 3 4 4 4 4 4 3 4 4 4
1 2 3 3 2 3 3 3 3 3 3 3 3 2 2 2 3 3 3 1 1 2 1 1 1 1 1 1 0 1 2 2 2 2 3 3 3 3 3 3 3 4 4
3 4 3 3 3 3 4 3 3 2 2 3 2 2 2 2 2 3 3 3 1 1 1 2 2 2 2 2 2 1 1 2 2 1 1 2 2 3 2 2 2 3 3
3 4 4 3 3 3 4 4 3 2 2 2 2 2 1 1 2 2 3 4 4 1 3 3 2 2 2 3 2 2 1 1 1 1 1 0 0 1 2 3 3 3 4
3 4 4 4 4 3 4 4 3 2 2 2 2 2 2 1 1 1 2 2 3 3 3 3 3 2 2 1 2 2 2 1 1 1 2 1 1 1 1 2 2 3 4
3 4 4 4 4 4 4 4 3 3 3 2 2 3 2 2 2 2 2 2 2 3 2 3 2 1 1 1 1 1 2 2 2 3 3 2 2 2 2 2 2 3 3
2 3 3 3 3 3 3 4 4 3 3 3 3 3 2 2 2 2 2 2 2 2 3 2 2 1 2 2 1 1 1 2 3 3 3 3 3 2 2 1 2 3 3
1 2 2 3 3 2 2 3 3 3 3 3 3 3 3 3 2 2 2 2 2 1 2 2 2 1 1 1 0 1 2 2 3 3 3 3 3 2 2 2 3 3 3
1 0 2 2 2 2 2 2 3 2 2 2 3 4 4 4 4 3 3 3 2 2 1 2 1 1 0 1 1 0 2 2 3 2 3 3 3 3 3 3 3 3 3
1 1 1 1 1 2 2 2 3 3 3 2 2 3 3 4 4 4 3 3 3 2 2 2 1 1 1 0 1 1 1 2 2 1 1 2 2 2 3 4 4 4 3
1 1 1 1 1 2 2 2 3 3 3 3 3 2 2 2 3 3 4 5 5 5 4 3 2 2 3 3 2 1 1 0 2 2 1 2 1 2 3 4 4 4 3
1 1 1 2 2 3 2 2 3 3 3 3 3 2 2 1 1 2 2 2 4 5 6 5 5 5 4 4 3 2 2 2 3 2 1 2 1 2 3 4 5 4 4
2 2 2 3 3 3 2 2 2 2 2 2 3 3 3 2 2 3 2 1 2 3 4 4 5 5 4 4 4 4 3 2 1 1 1 1 1 2 3 4 5 5 5
2 3 3 3 3 3 3 3 3 2 1 1 2 2 3 3 3 3 3 2 1 2 2 3 3 3 3 4 4 2 2 1 1 2 1 1 1 1 2 2 4 4 5
3 3 2 2 3 3 3 3 4 2 2 1 1 2 2 2 3 3 4 4 3 3 1 1 1 1 1 2 4 4 4 2 1 2 2 1 1 0 2 2 2 3 3
Wind_Direction
112 106 83 75 67 73 85 83 80 80 77 76 81 81 69 64 62 59 59 65 68 70 70 68 69 75 80 85 85 79 75 71 68 66 65 64 61 62 68 73 80 81 80
123 112 90 79 72 87 96 93 91 93 84 82 79 81 79 71 65 62 59 59 62 65 66 69 73 73 77 88 86 79 72 67 64 62 61 60 58 59 64 73 76 80 80
133 119 100 83 82 91 91 87 79 84 85 79 73 75 80 75 72 65 61 58 58 60 62 68 73 71 77 84 83 77 71 62 58 58 58 57 57 60 63 68 73 72 75
135 121 105 97 98 97 92 87 79 77 75 72 70 64 65 73 71 70 65 61 59 56 56 61 66 70 75 80 77 73 69 60 54 51 53 55 55 57 60 63 66 71 73
135 124 113 109 107 93 79 90 80 88 88 80 79 63 55 62 65 75 69 65 61 59 57 55 58 62 69 73 72 68 65 60 53 50 48 48 51 54 54 59 64 66 69
133 125 115 109 106 97 83 84 88 72 86 92 83 61 43 42 50 60 64 64 63 62 61 59 55 54 59 63 63 59 58 57 56 54 49 45 46 48 53 57 62 61 60
135 128 121 117 109 111 119 115 105 90 67 82 77 51 28 32 39 42 47 58 53 55 59 56 56 55 50 53 57 57 56 56 54 51 49 45 45 47 49 57 61 63 60
144 141 136 136 128 118 109 110 112 107 97 89 105 91 40 10 11 26 31 50 44 53 58 56 61 59 50 47 48 50 49 53 52 48 45 42 42 46 50 55 58 61 57
150 147 146 141 141 138 144 145 141 132 141 68 106 128 131 192 317 351 12 23 27 38 36 55 64 59 52 48 45 43 46 49 48 44 41 37 36 41 45 48 53 59 57
137 140 142 140 145 145 153 164 148 144 140 147 100 84 145 152 148 320 341 348 3 19 2 48 68 64 59 57 43 40 47 47 42 41 38 33 33 35 40 43 46 51 49
140 140 140 138 147 152 159 158 145 144 145 155 163 155 108 85 115 144 235 319 348 338 342 3 91 75 67 66 44 38 37 41 34 33 31 30 33 33 35 43 43 41 42
155 147 143 147 154 154 162 164 157 155 159 156 159 156 153 155 175 156 184 236 281 302 316 330 349 85 74 65 27 32 28 40 34 32 28 26 30 37 41 39 34 33 32
173 191 158 162 164 166 165 155 146 155 158 163 176 179 175 180 165 154 151 188 252 294 321 316 282 235 224 170 46 24 35 43 33 32 34 28 28 36 33 27 25 25 20
194 193 169 165 167 168 167 154 149 160 153 166 174 170 168 185 162 159 158 151 120 322 310 276 295 245 221 198 217 219 69 30 20 23 49 39 34 27 13 6 8 9 6
195 185 175 177 181 179 174 160 161 173 161 171 175 165 153 175 161 159 150 153 152 192 263 261 265 264 226 212 227 196 184 339 341 226 199 143 29 13 14 13 6 359 352
194 179 186 187 190 190 181 169 167 177 161 181 178 163 163 161 139 137 153 158 156 167 218 244 240 258 242 228 245 219 225 286 277 229 219 233 247 274 328 343 352 354 352
193 185 193 193 194 199 190 176 181 174 172 189 188 171 185 169 152 162 159 158 161 153 196 264 270 279 245 255 256 239 249 267 272 260 243 252 265 270 284 304 320 335 340
181 174 176 183 189 185 181 176 188 184 180 196 205 179 192 175 161 170 166 178 185 175 171 223 265 275 250 242 231 252 270 287 268 271 266 264 266 263 267 304 326 322 322
151 168 173 180 185 181 173 178 184 183 193 203 202 190 192 166 182 189 176 182 198 194 173 178 222 241 277 327 346 313 317 318 292 281 285 279 271 270 266 297 311 314 320
144 192 204 195 188 180 178 178 178 173 189 205 206 195 189 184 195 194 183 188 182 165 156 153 178 198 272 328 72 342 332 320 309 301 299 288 282 279 283 298 306 312 317
156 200 235 208 194 185 190 181 188 181 177 189 203 201 201 200 198 191 185 184 169 166 161 161 167 160 223 270 231 221 249 297 309 321 327 299 291 303 296 293 297 303 299
175 178 216 222 216 226 222 193 185 185 183 187 194 209 214 193 204 201 190 176 172 174 183 178 191 202 224 218 209 210 182 109 289 288 265 287 261 280 288 284 292 298 296
175 186 223 210 223 247 236 195 175 176 178 192 196 193 214 227 202 198 210 187 192 191 183 182 192 211 208 205 187 197 206 200 229 244 180 269 291 278 285 284 286 292 294
192 204 216 219 221 235 224 203 165 160 175 197 203 197 193 204 206 168 166 167 207 223 216 204 200 212 212 200 192 197 208 213 267 291 143 229 279 279 298 290 288 297 292
208 215 215 217 223 240 222 195 167 166 169 206 212 204 193 203 213 170 160 175 219 270 255 215 208 202 198 188 162 133 126 130 271 278 215 185 244 281 298 293 295 308 300
212 215 225 226 225 230 222 195 168 162 168 213 235 234 222 218 209 186 179 182 207 235 220 210 230 232 182 178 175 174 174 176 200 250 240 188 215 212 301 289 289 298 302
Height
1531 1531 1530 1530 1530 1530 1530 1530 1530 1529 1529 1529 1528 1528 1527 1526 1525 1525 1524 1523 1522 1521 1520 1519 1518 1517 1517 1518 1519 1519 1520 1520 1520 1520 1520 1519 1519 1519 1519 1519 1519 1519 1519
1532 1532 1531 1531 1531 1531 1531 1531 1531 1530 1530 1530 1530 1529 1529 1528 1527 1527 1526 1525 1524 1523 1522 1521 1520 1519 1518 1518 1519 1520 1520 1520 1520 1520 1519 1519 1519 1519 1518 1519 1519 1519 1519
1533 1533 1533 1532 1532 1532 1532 1531 1531 1531 1531 1531 1531 1531 1530 1530 1529 1528 1528 1527 1526 1525 1524 1523 1522 1521 1519 1519 1520 1521 1521 1521 1521 1520 1520 1519 1519 1519 1518 1519 1519 1519 1519
1534 1534 1534 1533 1533 1533 1532 1532 1532 1532 1532 1531 1532 1532 1531 1531 1530 1530 1529 1528 1528 1527 1526 1525 1524 1523 1522 1521 1521 1521 1521 1521 1521 1521 1520 1520 1519 1519 1519 1519 1519 1519 1519
1534 1534 1534 1534 1534 1534 1533 1533 1532 1533 1533 1533 1533 1533 1533 1533 1532 1531 1531 1530 1529 1529 1528 1527 1526 1525 1524 1523 1523 1523 1522 1522 1522 1521 1520 1520 1520 1519 1519 1519 1519 1519 1519
1534 1534 1534 1535 1534 1534 1534 1534 1534 1534 1534 1534 1533 1534 1534 1534 1533 1533 1532 1532 1531 1530 1530 1529 1528 1527 1526 1525 1524 1524 1523 1523 1522 1522 1521 1521 1520 1520 1519 1519 1519 1519 1519
1534 1534 1534 1534 1534 1535 1535 1535 1535 1535 1535 1534 1534 1534 1535 1535 1535 1534 1534 1533 1532 1532 1531 1530 1529 1528 1527 1526 1526 1525 1524 1524 1523 1522 1522 1521 1521 1520 1520 1519 1519 1518 1518
1534 1534 1534 1534 1534 1535 1535 1535 1535 1535 1535 1535 1535 1534 1535 1537 1536 1535 1535 1534 1534 1533 1532 1531 1530 1529 1528 1527 1527 1526 1525 1524 1523 1523 1522 1522 1521 1520 1520 1519 1519 1518 1518
1534 1534 1534 1534 1534 1534 1534 1535 1535 1535 1535 1536 1536 1536 1535 1535 1536 1536 1535 1535 1534 1534 1533 1532 1531 1530 1529 1528 1527 1526 1526 1525 1524 1523 1522 1521 1521 1520 1519 1519 1518 1518 1517
1533 1533 1534 1534 1534 1534 1534 1534 1535 1535 1535 1535 1535 1535 1536 1535 1535 1535 1536 1535 1535 1534 1533 1532 1531 1530 1530 1529 1528 1527 1526 1525 1524 1523 1522 1521 1520 1519 1519 1518 1518 1517 1517
1532 1532 1533 1533 1533 1533 1533 1534 1534 1534 1535 1535 1535 1535 1535 1535 1535 1534 1534 1535 1535 1534 1533 1532 1531 1530 1529 1529 1528 1527 1526 1525 1523 1522 1521 1520 1519 1519 1518 1518 1518 1517 1517
1530 1531 1531 1531 1532 1532 1533 1533 1533 1533 1534 1534 1534 1534 1534 1534 1534 1533 1533 1533 1533 1533 1533 1532 1531 1530 1529 1528 1527 1526 1525 1524 1523 1522 1521 1520 1519 1518 1518 1517 1517 1517 1516
1528 1529 1529 1530 1530 1531 1531 1532 1532 1532 1532 1533 1533 1533 1533 1533 1533 1533 1532 1532 1532 1532 1532 1531 1530 1530 1529 1528 1527 1526 1524 1523 1522 1521 1520 1519 1519 1518 1517 1517 1516 1516 1515
1526 1527 1528 1528 1529 1529 1530 1530 1531 1531 1531 1531 1531 1531 1531 1532 1532 1532 1531 1531 1530 1530 1530 1529 1529 1528 1528 1527 1526 1525 1524 1523 1522 1521 1520 1519 1518 1517 1517 1516 1516 1515 1515
1525 1525 1526 1526 1527 1527 1528 1528 1529 1529 1529 1529 1530 1530 1530 1530 1530 1530 1530 1530 1530 1528 1528 1527 1527 1527 1526 1526 1525 1524 1523 1522 1521 1520 1519 1518 1517 1517 1516 1515 1515 1514 1514
1522 1523 1523 1524 1524 1525 1525 1526 1526 1527 1527 1527 1528 1528 1528 1528 1528 1528 1528 1528 1528 1528 1526 1526 1526 1525 1525 1524 1523 1522 1521 1521 1520 1519 1518 1517 1516 1516 1515 1514 1514 1513 1512
1519 1520 1520 1521 1521 1522 1523 1523 1524 1525 1525 1525 1525 1525 1525 1526 1526 1526 1526 1526 1526 1526 1524 1524 1524 1523 1523 1522 1521 1521 1520 1519 1518 1518 1517 1516 1515 1514 1514 1513 1513 1512 1511
1516 1516 1517 1517 1518 1519 1520 1520 1521 1522 1522 1522 1523 1523 1523 1523 1523 1523 1523 1523 1523 1523 1523 1521 1521 1521 1521 1520 1520 1519 1518 1518 1517 1516 1515 1514 1514 1513 1513 1512 1511 1511 1510
1513 1513 1513 1514 1515 1516 1517 1517 1518 1519 1519 1519 1520 1520 1520 1520 1520 1520 1520 1520 1521 1521 1520 1520 1519 1519 1518 1518 1517 1517 1516 1516 1515 1515 1514 1513 1512 1512 1512 1511 1510 1509 1508
1510 1510 1511 1511 1512 1513 1514 1514 1515 1515 1516 1516 1517 1517 1518 1518 1518 1518 1518 1518 1518 1518 1518 1517 1517 1516 1516 1516 1515 1514 1514 1514 1513 1513 1512 1511 1511 1511 1510 1509 1508 1507 1506
1507 1508 1508 1508 1509 1509 1510 1511 1512 1512 1513 1513 1514 1514 1515 1515 1515 1515 1515 1515 1515 1515 1515 1514 1514 1514 1514 1513 1513 1512 1512 1511 1511 1511 1510 1510 1509 1509 1508 1507 1506 1505 1505
1505 1505 1505 1506 1505 1506 1507 1508 1509 1509 1509 1510 1510 1511 1511 1512 1512 1512 1512 1512 1513 1512 1512 1512 1511 1511 1511 1511 1511 1510 1510 1509 1508 1509 1508 1507 1507 1506 1506 1505 1505 1504 1503
1502 1502 1502 1503 1503 1503 1504 1505 1505 1506 1506 1506 1507 1507 1508 1508 1508 1509 1509 1509 1509 1509 1510 1510 1509 1508 1508 1508 1508 1507 1507 1506 1506 1506 1505 1504 1504 1504 1504 1503 1503 1502 1501
1498 1498 1499 1499 1500 1500 1501 1501 1502 1502 1503 1503 1504 1504 1504 1505 1505 1505 1505 1505 1505 1506 1506 1506 1506 1505 1506 1506 1505 1505 1504 1504 1504 1503 1503 1502 1501 1501 1501 1500 1500 1499 1498
1495 1495 1495 1495 1496 1496 1497 1498 1498 1498 1499 1499 1500 1501 1501 1501 1501 1502 1502 1501 1501 1502 1502 1503 1503 1502 1502 1502 1502 1502 1501 1501 1500 1500 1500 1499 1498 1498 1497 1497 1497 1496 1496
1491 1491 1492 1492 1493 1493 1494 1494 1495 1495 1495 1495 1496 1497 1497 1497 1498 1498 1498 1498 1497 1498 1498 1498 1499 1499 1499 1499 1499 1498 1498 1498 1497 1497 1497 1497 1496 1495 1494 1494 1494 1493 1492